Regional Weather Roundup
Issued by NWS

Home | Current Version | Previous Version | Graphics & Text | Print | Product List | Glossary On
Versions: 1 2 3 4 5 6 7 8 9 10 11 12 13 14 15 16 17 18 19 20 21 22 23 24 25 26 27 28 29 30 31 32 33 34 35 36 37 38 39 40 41 42 43 44 45 46 47 48 49 50
000
ASUS43 KLSX 191959
RWRMO

WEATHER SUMMARY FOR MISSOURI
NATIONAL WEATHER SERVICE SPRINGFIELD MO
300 PM CDT SUN APR 19 2015

NOTE: "FAIR" INDICATES FEW OR NO CLOUDS BELOW 12,000 FEET WITH NO
       SIGNIFICANT WEATHER AND/OR OBSTRUCTIONS TO VISIBILITY.
       CURRENT SKY AND/OR WEATHER CONDITIONS ARE NOT AVAILABLE FOR
       CHILLICOTHE AND FARMINGTON.

MOZ001>031-035>038-043-044-053-054-192100-
...NORTHERN AND WESTERN MISSOURI...

CITY           SKY/WX    TMP DP  RH WIND       PRES   REMARKS
KANSAS CTY INT PTSUNNY   63  54  72 NW18G26   29.64S
KANSAS C DTWN  MOSUNNY   68  52  56 W14G22    29.62F
LEE`S SUMMIT   PTSUNNY   67  52  58 W12G18    29.63F
ST JOSEPH      CLOUDY    58  52  80 NW17G25   29.66S
CHILLICOTHE      N/A     66  54  65 W9        29.59F
KIRKSVILLE     RAIN      60  58  92 CALM      29.57F FOG

$$
MOZ066>068-077>081-088>096-101>105-192100-
...SOUTHWEST MISSOURI...

CITY           SKY/WX    TMP DP  RH WIND       PRES   REMARKS
SPRINGFIELD    MOSUNNY   67  51  56 NW14G23   29.67S
JOPLIN         CLOUDY    62  54  74 SE6       29.67F

$$
MOZ032>034-039>042-045>050-055>058-069>072-192100-
...CENTRAL MISSOURI...

CITY           SKY/WX    TMP DP  RH WIND       PRES   REMARKS
COLUMBIA       TSTM      65  59  81 SW13      29.59F
JEFFERSON CITY LGT RAIN  67  59  75 W8        29.58F
ROLLA          CLOUDY    64  59  83 W9        29.57F
SEDALIA        CLOUDY    67  56  67 W14       29.62F
OSAGE BEACH    CLOUDY    66  54  63 W10G17    29.61F

$$
MOZ051-052-059>065-192100-
...EAST CENTRAL MISSOURI...

CITY           SKY/WX    TMP DP  RH WIND       PRES   REMARKS
ST LOUIS INTL  RAIN      64  59  83 W8        29.53F
SPIRIT OF STL  RAIN      62  60  93 W7        29.54S FOG
ST CHARLES     LGT RAIN  62  59  90 N5        29.52F FOG

$$
MOZ072>076-082>087-097>100-106>115-192100-
...SOUTH CENTRAL AND SOUTHEAST MISSOURI...

CITY           SKY/WX    TMP DP  RH WIND       PRES   REMARKS
CAPE GIRARDEAU LGT RAIN  65  62  90 NW17      29.52S
FARMINGTON     CLOUDY    63  57  82 NW7       29.57F
POPLAR BLUFF   LGT RAIN  69  61  75 W5        29.54F
WEST PLAINS    CLOUDY    70  54  56 NW12      29.62F

$$


USA.gov is the U.S. government's official web portal to all federal, state and local government web resources and services.